www.pogodaiklimat.ru

Архив погоды в Пасо-де-Лос-Либресе (Аргентина)

Время
(UTC), дата
07 6.04
08 6.04
09 6.04
10 6.04
11 6.04
12 6.04
13 6.04
14 6.04
15 6.04
16 6.04
17 6.04
18 6.04
19 6.04
20 6.04
21 6.04
22 6.04
23 6.04
00 7.04
01 7.04
02 7.04
03 7.04
04 7.04
05 7.04
06 7.04
07 7.04
08 7.04
09 7.04
10 7.04
11 7.04
12 7.04
13 7.04
14 7.04
15 7.04
16 7.04
17 7.04
18 7.04
19 7.04
20 7.04
21 7.04
22 7.04
23 7.04
00 8.04
01 8.04
02 8.04
03 8.04
04 8.04
05 8.04
06 8.04
07 8.04
08 8.04
09 8.04
10 8.04
11 8.04
12 8.04
13 8.04
14 8.04
15 8.04
16 8.04
17 8.04
18 8.04
19 8.04
20 8.04
21 8.04
22 8.04
23 8.04
00 9.04
01 9.04
02 9.04
03 9.04
04 9.04
05 9.04
06 9.04
07 9.04
08 9.04
09 9.04
10 9.04
11 9.04
12 9.04
13 9.04
14 9.04
15 9.04
16 9.04
17 9.04
18 9.04
19 9.04
20 9.04
21 9.04
22 9.04
23 9.04
00 10.04
01 10.04
02 10.04
03 10.04
04 10.04
05 10.04
06 10.04
07 10.04
08 10.04
09 10.04
10 10.04
12 10.04
13 10.04
14 10.04
15 10.04
16 10.04
17 10.04
18 10.04
19 10.04
20 10.04
21 10.04
22 10.04
23 10.04
00 11.04
01 11.04
02 11.04
03 11.04
04 11.04
05 11.04
06 11.04
07 11.04
08 11.04
09 11.04
10 11.04
11 11.04
12 11.04
13 11.04
14 11.04
15 11.04
16 11.04
17 11.04
18 11.04
19 11.04
20 11.04
21 11.04
22 11.04
23 11.04
00 12.04
01 12.04
02 12.04
03 12.04
04 12.04
05 12.04
06 12.04
07 12.04
08 12.04
09 12.04
11 12.04
12 12.04
13 12.04
14 12.04
15 12.04
16 12.04
17 12.04
18 12.04
19 12.04
20 12.04
21 12.04
22 12.04
23 12.04
00 13.04
01 13.04
02 13.04
03 13.04
04 13.04
Ветер
(напр.,м/с)
Видим. Явления Облачность Т
(С)
Тd
(С)
f
(%)
Тe
(С)
Тes
(С)
Комфортность P
(гПа)
Po
(гПа)
Тmin
(С)
Tmax
(С)
R
(мм)
R24
(мм)
S
(см)
СВ 9 10 км ясно +18.6 +16.5 88 +19 +19 1001.6 1008.1
В 12 10 км ясно +18.1 +16.1 88 +17 +17 1015.1 1007.0
В 12 10 км ясно +17.6 +16.1 91 +16 +16 1015.2 1007.0
В 12 10 км 1/0
[Ac cast]
+17.2 +15.7 91 +15 +15 1015.7 1007.4
В 7 10 км 3/0
[Ac cast Ci]
+17.6 +15.6 88 +17 +17 1016.0 1007.8
В 7 10 км 5/0
[Ac cast Cs]
+19.2 +15.2 78 +20 +21 1015.9 1007.7 +17.0 +23.6
В 7 10 км 6/0
[Ac cast Cs]
+20.8 +15.5 72 +24 +26 комфорт 1015.8 1007.6
В 7 10 км 8/0
[Ac cast Cs]
+22.1 +16.4 70 +26 +29 душно 1015.7 1007.4
В 7 10 км 8/0
[Ac cast Cs]
+23.2 +16.0 64 +28 +31 душно 1014.6 1006.4
В 7 10 км 9/0
[Cs]
+24.1 +16.2 61 +27 +31 жарко 1014.1 1005.8
В 4 10 км 9/0
[Ac As Cs]
+24.8 +16.8 61 +28 +34 жарко 1013.0 1004.9
В 4 10 км 10/0
[Ac As Cs]
+24.8 +16.1 58 +28 +31 жарко 1012.2 1004.0
В 4 10 км 10/0
[Ac As Cs]
+24.6 +16.0 59 +28 +30 душно 1011.3 1003.0
В 4 10 км гроза без осадков 10/1 1500 м
[Cb cap Ac cast Cs]
+23.8 +16.4 63 +27 +28 жарко 1011.6 1003.4
ЮВ 4 6000 м гроза, ливневой дождь 10/1 900 м
[Cb cap Ac As]
+20.8 +17.9 83 +25 +25 комфорт 1011.6 1003.4
Ю 4 6000 м гроза, ливневой дождь 10/1 900 м
[Cb cap Ac As]
+20.0 +18.7 92 +23 +23 комфорт 1012.7 1004.5
ЮВ 4 8000 м гроза, ливневой дождь 10/1 1500 м
[Cb cap As op]
+19.0 +16.2 84 +20 +20 1011.7 1003.4
ЮВ 9 4000 м гроза, ливневой дождь 10/1 1500 м
[Cb cap As op]
+18.2 +16.2 88 +17 +17 1012.1 1003.8 +18.2 +25.0 3
Ю 9 4000 м гроза, ливневой дождь 10/1 1200 м
[Cb cap As op]
+17.8 +17.0 95 +17 +17 1016.3 1008.0
Ю 9 8000 м гроза, ливневой дождь 10/4 240 м
[Cb cap As op]
+17.7 +16.4 92 +17 +17 1015.0 1006.8
Ю 12 10 км слаб. дождь {гроза} 10/4 240 м
[Cb cap Ac As]
+17.5 +15.1 86 +16 +16 1014.8 1006.6
В 12 8000 м гроза, ливневой дождь 10/5 240 м
[Cb cap Ac As]
+16.9 +15.4 91 +15 +15 1012.3 1004.1
В 4 8000 м гроза, ливневой дождь 10/1 1200 м
[Cb cap Ac As]
+16.9 +15.7 93 +16 +16 1012.7 1004.5
СВ 7 8000 м гроза, ливневой дождь 10/1 1500 м
[Cb cap Ac As]
+16.8 +16.0 95 +16 +16 1011.2 1003.0 55
СВ 4 10 км в посл. час гроза 10/1 1500 м
[Cb cap Ac As]
+16.8 +15.8 94 +16 +16 1011.4 1003.2
В 1 10 км {гроза} 10/0
[Ac As]
+17.5 +16.5 94 +19 +19 1011.6 1003.4
штиль 0 10 км {гроза} 10/0
[Ac As]
+17.9 +15.0 83 +18 +18 1012.7 1004.5
Ю 4 10 км 10/4 240 м
[St Ac As]
+17.9 +16.7 93 +18 +18 1013.2 1005.0
Ю 3 8000 м дымка 10/10 240 м
[St]
+18.0 +17.2 95 +18 +18 1014.1 1005.8
Ю 4 8000 м дымка {гроза} 10/10 240 м
[St]
+18.0 +17.0 94 +18 +18 1014.4 1006.1 +16.8 +18.2 0.1
Ю 4 10 км 10/9 240 м
[St Ac As]
+18.4 +16.8 90 +19 +19 1014.8 1006.5
Ю 7 10 км 9/6 240 м
[St Ac As]
+19.0 +17.4 90 +20 +21 1014.4 1006.1
ЮВ 4 10 км 9/6 450 м
[Sc Ac As]
+21.7 +18.1 80 +26 +28 душно 1014.4 1006.2
В 4 10 км 9/6 360 м
[Sc Ac As]
+22.3 +18.7 80 +28 +29 душно 1013.9 1005.7
Ю 3 10 км 9/6 450 м
[Sc Ac As]
+22.9 +18.3 75 +29 +31 очень душно 1013.0 1004.8
ЮВ 3 10 км 9/6 450 м
[Sc Ac As]
+23.2 +18.5 75 +29 +31 душно 1012.2 1004.0
ЮВ 3 10 км 9/9 450 м
[Sc Ac As]
+23.0 +18.3 75 +29 +29 очень душно 1012.7 1004.5
ЮВ 7 10 км 10/10 450 м
[Sc]
+23.0 +18.6 76 +29 +29 очень душно 1013.0 1004.8
Ю 3 10 км 10/10 450 м
[Sc]
+22.8 +18.7 78 +29 +29 очень душно 1012.7 1004.5
Ю 3 10 км 10/10 450 м
[Sc]
+22.2 +19.7 86 +28 +28 душно 1013.0 1004.8
ЮВ 3 10 км 8/8 450 м
[Sc]
+21.6 +19.4 87 +27 +27 душно 1013.4 1005.2
штиль 0 10 км 10/10 240 м
[St]
+21.2 +20.0 93 +26 +26 душно 1013.8 1005.6 +18.0 +23.5
штиль 0 10 км 10/10 240 м
[Sc]
+21.3 +19.9 92 +26 +26 душно 1014.1 1005.8
штиль 0 10 км 5/5 450 м
[Sc]
+21.0 +19.4 91 +25 +25 комфорт 1014.4 1006.2
штиль 0 10 км 4/4 540 м
[Sc]
+20.2 +19.3 95 +24 +24 комфорт 1014.1 1005.8
штиль 0 10 км ясно +20.0 +19.2 95 +23 +23 комфорт 1014.0 1005.8
штиль 0 10 км ясно +19.6 +19.0 96 +22 +22 комфорт 1013.8 1005.6
штиль 0 10 км ясно +19.3 +18.3 94 +21 +21 комфорт 1013.2 1005.0
штиль 0 5000 м дымка ясно +18.5 +18.0 97 +19 +19 1013.1 1004.9
штиль 0 400 м туман, небо видно ясно +18.0 +17.7 98 +18 +18 1013.0 1004.8
штиль 0 10 км дымка {туман} ясно +17.8 +17.5 98 +18 +18 1012.7 1004.5
В 1 5000 м дымка {морось} 10/10 240 м
[St]
+18.4 +18.1 98 +20 +20 1013.1 1004.9
В 1 8000 м дымка 10/10 240 м
[St]
+19.0 +18.7 98 +22 +22 комфорт 1013.5 1005.3
В 1 8000 м дымка {туман} 10/10 240 м
[St]
+20.0 +17.8 87 +24 +24 комфорт 1014.1 1005.8 +17.5 +21.3
В 1 10 км 9/9 240 м
[St]
+21.2 +19.5 90 +26 +27 душно 1014.2 1006.0
В 1 10 км 9/9 240 м
[St]
+22.1 +19.1 83 +28 +29 душно 1013.9 1005.7
ЮВ 1 10 км 9/9 240 м
[St]
+23.1 +18.7 76 +29 +31 очень душно 1013.4 1005.2
В 1 10 км 8/8 450 м
[Sc]
+23.8 +19.0 75 +29 +32 душно 1012.7 1004.5
штиль 0 10 км 8/8 450 м
[Sc]
+24.9 +19.5 72 +30 +33 душно 1011.7 1003.6
штиль 0 10 км 9/9 450 м
[Sc]
+25.0 +19.3 71 +30 +32 душно 1011.2 1003.0
В 1 10 км 6/6 450 м
[Sc]
+25.0 +19.1 70 +30 +33 душно 1010.6 1002.5
ЮВ 1 10 км 8/8 450 м
[Sc]
+25.3 +19.6 71 +31 +31 очень душно 1010.6 1002.5
ЮВ 1 10 км 9/9 450 м
[Sc]
+24.4 +20.6 79 +30 +30 очень душно 1010.8 1002.6
Ю 1 10 км 9/9 600 м
[Sc]
+23.5 +20.5 83 +29 +29 душно 1010.8 1002.6
Ю 1 10 км 9/9 600 м
[Sc]
+23.2 +20.8 86 +31 +31 очень душно 1010.8 1002.6
штиль 0 10 км 9/9 600 м
[Sc]
+23.0 +20.6 86 +30 +30 очень душно 1011.3 1003.0 +20.0 +25.3
В 1 10 км 9/9 600 м
[Sc]
+23.0 +20.6 86 +30 +30 очень душно 1011.4 1003.3
В 1 10 км 9/9 600 м
[Sc]
+22.4 +21.2 93 +29 +29 очень душно 1011.5 1003.4
В 1 10 км 9/9 600 м
[Sc]
+22.0 +21.1 95 +28 +28 душно 1011.6 1003.4
штиль 0 10 км 4/4 600 м
[Sc]
+21.8 +20.9 95 +28 +28 душно 1011.9 1003.8
штиль 0 8000 м местами туман поземный 1/1 600 м
[Sc]
+20.5 +19.6 95 +24 +24 комфорт 1012.0 1003.8
штиль 0 900 м туман, небо видно ясно +19.4 +19.1 98 +22 +22 комфорт 1011.9 1003.8
штиль 0 2000 м в посл. час туман туман ясно +19.0 +18.2 95 +21 +21 комфорт 1011.8 1003.7
СВ 1 2000 м дымка 6/6 600 м
[Sc]
+19.0 +18.7 98 +22 +22 комфорт 1012.0 1003.8
СВ 1 900 м туман, небо видно 5/5 600 м
[Sc]
+19.2 +19.0 99 +22 +22 комфорт 1013.1 1004.9
СВ 1 5000 м в посл. час туман туман 5/5 600 м
[Sc]
+19.2 +18.9 98 +22 +22 комфорт 1013.8 1005.6
С 1 4000 м местами туман поземный туман 5/5 180 м
[Sc]
+20.1 +19.8 98 +25 +25 комфорт 1014.5 1006.2
С 3 8000 м дымка {туман} 3/3 240 м
[St]
+22.1 +21.0 93 +29 +31 очень душно 1015.0 1006.8 +18.7 +23.0
СЗ 3 10 км 4/4 240 м
[Sc]
+23.9 +21.5 86 +30 +34 очень душно 1015.2 1007.0
Ю 4 10 км 4/4 450 м
[Sc]
+25.9 +21.6 77 +33 +37 очень душно 1015.0 1006.9
Ю 4 10 км 6/6 540 м
[Sc]
+26.2 +20.5 71 +33 +36 очень душно 1014.7 1006.6
Ю 7 10 км 5/4 600 м
[Sc Cc]
+27.5 +18.2 57 +32 +35 очень душно 1014.1 1006.0
ЮЗ 7 10 км 6/4 600 м
[Sc Ac As]
+27.2 +18.0 57 +32 +33 очень душно 1013.4 1005.3
ЮЗ 7 10 км 8/5 600 м
[Sc Ac As]
+26.7 +18.1 59 +31 +32 душно 1013.1 1005.0
Ю 4 10 км 9/4 600 м
[Sc Ac As]
+26.4 +18.1 60 +31 +32 душно 1012.7 1004.6
Ю 3 10 км 6/1 600 м
[Sc Ac As]
+26.1 +18.3 62 +31 +32 очень душно 1012.4 1004.2
Ю 3 10 км 4/0
[Ac und]
+25.7 +18.6 65 +31 +31 очень душно 1012.0 1003.8
Ю 1 10 км 1/0
[Ac und]
+23.2 +18.7 76 +29 +29 душно 1011.8 1003.6
Ю 1 10 км ясно +21.8 +19.0 84 +27 +27 душно 1012.6 1004.4
Ю 3 10 км ясно +20.6 +18.5 88 +25 +25 комфорт 1012.9 1004.6 +20.6 +27.5
Ю 3 10 км ясно +19.8 +18.4 92 +23 +23 комфорт 1013.0 1004.8
Ю 3 10 км ясно +19.3 +18.2 93 +22 +22 комфорт 1012.7 1004.6
Ю 3 10 км ясно +18.4 +17.8 96 +19 +19 1012.8 1004.6
Ю 3 10 км ясно +18.2 +17.4 95 +19 +19 1013.0 1004.9
Ю 3 10 км 4/0
[Ac trans]
+18.4 +17.8 96 +19 +19 1012.8 1004.6
штиль 0 10 км 3/0
[Ac trans]
+18.0 +17.3 96 +18 +18 1012.7 1004.6
штиль 0 10 км 8/0
[Ac und]
+18.4 +17.6 95 +19 +19 1012.5 1004.4
штиль 0 10 км 8/0
[Ac und]
+18.6 +18.0 96 +20 +20 1012.2 1004.1
штиль 0 10 км 5/0
[Ac und]
+19.2 +18.6 96 +21 +21 комфорт 1011.9 1003.8
Ю 3 10 км 6/0
[Ac As]
+19.4 +18.4 94 +22 +22 комфорт 1012.1 1003.8
В 4 10 км 4/1 450 м
[Sc Ac cast Cs]
+22.5 +18.7 79 +28 +30 душно 1013.1 1004.9 +17.0 +22.5
В 4 10 км 5/1 450 м
[Sc Ac cast Cs]
+24.1 +20.0 78 +30 +33 очень душно 1013.7 1005.4
В 7 10 км 6/3 600 м
[Sc Ac cast Cs]
+25.8 +21.0 75 +32 +34 очень душно 1013.9 1005.8
ЮВ 7 10 км 8/4 600 м
[Sc Ac cast Cs]
+27.5 +20.9 67 +34 +36 очень душно 1013.4 1005.3
В 9 10 км 9/6 450 м
[Cu med, cong Ac cast Cs]
+27.6 +21.2 68 +35 +35 очень душно 1012.9 1004.8
В 9 10 км 9/6 450 м
[Cu med, cong Ac cast Cs]
+27.6 +21.1 68 +35 +35 очень душно 1012.3 1004.2
ЮВ 9 10 км 9/6 840 м
[Cu med, cong Ac cast Cs]
+26.6 +19.9 67 +33 +33 очень душно 1012.3 1004.2
ЮВ 9 10 км осадки на расстоянии 10/4 450 м
[Cu Sc Ac cast Cs]
+25.5 +19.9 71 +31 +31 очень душно 1012.0 1003.8
ЮВ 7 10 км 10/4 450 м
[Sc Ac cast]
+24.9 +19.9 74 +30 +31 душно 1012.5 1004.2
ЮВ 7 10 км 10/1 450 м
[Sc Ac cast]
+24.5 +19.3 73 +30 +30 очень душно 1013.3 1005.0
ЮВ 7 8000 м слаб. дождь 10/1 600 м
[Sc As op]
+23.7 +18.9 74 +28 +28 душно 1013.6 1005.4
ЮВ 7 5000 м дождь 10/3 600 м
[Sc As op]
+21.1 +19.4 90 +26 +26 душно 1014.8 1006.6
ЮВ 7 5000 м дождь 10/1 600 м
[Sc As op]
+21.0 +19.0 88 +25 +25 комфорт 1015.5 1007.3 +21.0 +28.0 3
ЮВ 4 5000 м дождь 10/10 1050 м
[Ns]
+20.3 +18.9 92 +24 +24 комфорт 1016.3 1008.1
ЮВ 7 7000 м слаб. дождь 10/10 1050 м
[Ns]
+19.9 +18.5 92 +23 +23 комфорт 1016.4 1008.2
В 7 7000 м слаб. дождь 10/1 450 м
[Sc As op]
+19.3 +18.0 92 +21 +21 комфорт 1016.0 1007.8
В 9 7000 м слаб. дождь 10/1 450 м
[Sc As op]
+19.4 +17.0 86 +21 +21 комфорт 1015.9 1007.8
ЮВ 9 7000 м слаб. дождь 10/3 240 м
[St As op]
+19.2 +16.2 83 +20 +20 1016.4 1008.2
В 9 8000 м слаб. дождь 10/3 240 м
[St As op]
+18.4 +15.7 84 +18 +18 1016.3 1008.1 1
ЮВ 9 8000 м слаб. дождь 10/5 240 м
[St As op]
+18.0 +15.7 86 +17 +17 1016.6 1008.4
ЮВ 9 8000 м слаб. дождь 10/6 240 м
[St As op]
+17.8 +15.1 84 +17 +17 1016.3 1008.1
ЮВ 7 8000 м слаб. морось {дождь} туман 10/10 240 м
[Frnb]
+17.6 +15.6 88 +17 +17 1016.7 1008.5
В 7 8000 м слаб. морось 10/10 240 м
[Frnb]
+17.8 +15.6 87 +17 +17 1017.2 1009.0
В 7 8000 м слаб. морось 10/10 240 м
[Frnb]
+17.9 +15.9 88 +17 +17 1018.4 1010.1
В 7 10 км в посл. час морось {дождь} 10/10 240 м
[St]
+18.2 +15.9 86 +18 +18 1019.0 1010.6 +17.5 +21.0 0.1
В 7 10 км {морось} 10/10 240 м
[St]
+18.9 +16.4 85 +20 +20 1019.0 1010.6
В 7 8000 м слаб. морось 10/10 300 м
[St]
+20.1 +17.7 86 +23 +23 комфорт 1018.9 1010.6
В 7 8000 м слаб. морось 10/10 360 м
[Sc]
+20.1 +16.3 79 +22 +22 комфорт 1018.7 1010.4
ЮВ 7 6000 м слаб. морось 10/10 240 м
[Sc]
+19.9 +16.6 81 +22 +22 комфорт 1018.8 1010.5
В 7 8000 м слаб. морось 10/10 240 м
[Sc]
+20.6 +16.5 77 +24 +24 комфорт 1018.3 1010.0
В 7 8000 м слаб. морось 10/10 450 м
[Sc]
+20.5 +16.4 77 +23 +23 комфорт 1017.7 1009.4 0.0
В 7 10 км в посл. час морось 10/10 360 м
[Sc]
+21.2 +16.5 75 +25 +25 комфорт 1017.4 1009.0
В 7 10 км {морось} 10/10 360 м
[Sc]
+21.0 +16.6 76 +24 +24 комфорт 1017.6 1009.8
В 7 10 км {морось} 10/3 450 м
[Sc Ac As]
+21.0 +16.1 74 +24 +24 комфорт 1017.5 1009.2
В 7 10 км 10/4 450 м
[Sc Ac As]
+20.8 +16.4 76 +24 +24 комфорт 1017.5 1009.2
В 4 10 км 10/6 450 м
[Sc Ac As]
+20.6 +16.0 75 +24 +24 комфорт 1017.9 1009.6
В 4 10 км {морось} 10/8 540 м
[Sc Ac As]
+20.1 +16.5 80 +23 +23 комфорт 1018.6 1010.2 +18.2 +21.6 0.0
В 4 10 км 10/10 540 м
[Sc]
+19.7 +15.9 79 +22 +22 комфорт 1018.7 1010.4
В 7 10 км 10/10 540 м
[Sc]
+19.5 +15.3 77 +21 +21 комфорт 1019.1 1010.8
В 4 10 км 10/10 540 м
[Sc]
+19.5 +15.1 76 +21 +21 комфорт 1019.2 1010.9
В 7 10 км 10/6 540 м
[Sc Ac As]
+19.1 +15.2 78 +20 +20 1018.7 1010.4
В 7 10 км 8/4 540 м
[Sc Ac As]
+18.2 +15.0 82 +18 +18 1018.6 1010.2
В 7 10 км 6/1 540 м
[Sc Ac As]
+17.8 +14.9 83 +17 +17 1018.2 1009.8
В 7 10 км 6/1 240 м
[St Ac As]
+17.6 +14.9 84 +17 +17 1017.6 1009.3
В 4 10 км 6/0
[Ac As]
+17.6 +14.9 84 +17 +17 1017.5 1009.2
В 7 10 км 9/0
[Ac As]
+18.0 +15.3 84 +17 +17 1017.8 1009.4
В 7 10 км 5/4 240 м
[St Ac trans]
+18.3 +15.8 85 +18 +18 1017.4 1009.0
В 7 10 км 5/4 240 м
[St Ac trans]
+19.6 +16.1 80 +21 +22 комфорт 1017.4 1009.2 +17.5 +20.1
В 9 10 км 10/10 240 м
[Sc]
+19.9 +16.5 81 +22 +22 комфорт 1017.1 1008.9
В 7 10 км 10/4 450 м
[Sc Ac As]
+21.0 +17.1 78 +25 +25 комфорт 1017.3 1009.0
В 4 10 км 10/4 450 м
[Sc Ac As]
+22.2 +18.1 78 +27 +29 душно 1016.5 1008.2
В 4 8000 м слаб. морось 10/5 240 м
[Sc Ac As]
+21.1 +18.9 87 +25 +27 комфорт 1016.4 1008.2
В 3 10 км в посл. час морось 10/10 360 м
[Sc]
+22.7 +19.0 80 +29 +29 очень душно 1015.5 1007.3
В 4 10 км {морось} 10/5 360 м
[Sc Ac As]
+22.8 +19.2 80 +29 +30 очень душно 1014.8 1006.6 0.0
В 9 10 км 8/5 360 м
[Sc Ac As]
+22.9 +20.6 87 +30 +30 очень душно 1014.0 1005.8
В 4 8000 м гроза, ливневой дождь 10/5 360 м
[Cb cap Ac As]
+21.2 +19.8 92 +26 +26 душно 1013.4 1005.2
В 4 8000 м гроза, ливневой дождь 10/4 600 м
[Cb cap As op]
+20.5 +19.7 95 +25 +25 комфорт 1013.5 1005.3
В 4 8000 м гроза, ливневой дождь 10/4 600 м
[Cb cap As op]
+20.5 +19.3 93 +25 +25 комфорт 1013.1 1004.9
В 7 8000 м слаб. ливневой дождь, в посл. час гроза 10/10 240 м
[Sc]
+20.3 +19.4 95 +24 +24 комфорт 1013.2 1000.5
В 9 8000 м слаб. дождь {гроза} 10/10 240 м
[Sc]
+20.2 +19.4 95 +23 +23 комфорт 1012.8 1004.6 +19.6 +23.6 12
В 7 8000 м слаб. дождь 10/10 240 м
[Frnb]
+20.3 +19.5 95 +24 +24 комфорт 1013.7 1005.4
В 7 8000 м слаб. дождь 10/10 180 м
[Frnb]
+20.3 +19.5 95 +24 +24 комфорт 1013.7 1005.4
В 7 6000 м слаб. дождь 10/10 180 м
[Frnb]
+20.2 +19.6 96 +24 +24 комфорт 1013.4 1005.2
В 4 5000 м гроза, ливневой дождь 10/10 180 м
[Cb cap]
+20.0 +19.8 99 +24 +24 комфорт 1013.5 1005.3
Местоположение метеостанции Пасо-де-Лос-Либрес (Аргентина): широта -29.68 долгота -57.15 высота над уровнем моря 70 м.
В архиве по умолчанию представлена погода в Пасо-де-Лос-Либресе за последнюю неделю. Архивные данные за месяц целиком и за предыдущие месяцы, начиная с января 2011 года, Вы можете получить, выбрав интересующий диапазон дат из раскрывающегося списка и нажав кнопку "Найти!".
*Определитесь, кто Вы:
Внимание! Время в таблицах - всемирное. Для получения местного времени необходимо прибавить поправку, которая равна -3 ч.
Некоторые строки с данными для отдельных станций могут быть выделены курсивом. Это означает, что фактические данные отсутствуют по различным причинам, а приведенные значения являются расчетными модельными данными для данного пункта наблюдений.
Смотрите также архив погоды в соседних городах и на ближайших метеорологических станциях:
Партнеры нашего сайта:      
Пояснения к столбцам:
  • Ветер - указаны скорость ветра в м/с - средняя за 10 мин, порывы в срок и между сроками (в фигурных скобках) и направление, откуда дует ветер: С - северный,
  • СВ - северо-восточный, В - восточный, ЮВ - юго-восточный, Ю - южный, ЮЗ - юго-западный, З - западный, СЗ - северо-западный.
  • Видимость - горизонтальная дальность видимости в метрах или километрах. При видимости от 1 до 10 км при отсутствии осадков обычно наблюдается дымка, при ухудшении видимости до 1 км и менее - туман. В сухую погоду видимость может ухудшаться дымом, пылью или мглою.
  • Явления - указаны атмосферные явления, наблюдавшиеся в срок или в последний час перед сроком; фигурными скобками обозначены явления, наблюдавшиеся между сроками (за 1-3 часа до срока); квадратными скобками обозначены град или гололедные отложения с указанием их диаметра в мм.
  • Облачность - указаны через наклонную черту общая и нижняя облачность в баллах и высота нижней границы облаков в метрах; квадратными скобками обозначены формы облаков: Ci - перистые, Cs - перисто-слоистые, Cc - перисто-кучевые, Ac - высококучевые, As - высокослоистые, Sc - слоисто-кучевые, Ns - слоисто-дождевые, Cu - кучевые, Cb - кучево-дождевые. Подробнее классификацию облаков см. в Атласе облаков (PDF).
  • T - Температура воздуха - температура, измеренная на высоте 2 м над землей.
  • Td - Температура точки росы - температура, при понижении до которой содержащийся в воздухе водяной пар достигнет насыщения.
  • f - Относительная влажность воздуха - влажноcть воздуха, измеренная на высоте 2 м над землей.
  • Te - Эффективная температура - температура, которую ощущает одетый по сезону человек в тени. Характеристика душности погоды. При расчете учитывается влияние влажности воздуха и скорости ветра на теплоощущения человека.
  • Tes - Эффективная температура на солнце - температура, которую ощущает человек, с поправкой на солнечный нагрев. Характеристика знойности погоды. Зависит от высоты солнца над горизонтом, облачности и скорости ветра. Ночью, в пасмурную погоду, а также при ветре 12 м/с и более поправка равна нулю.
  • P - Атмосферное давление - приведенное к уровню моря атмосферное давление.
  • Po - Атмосферное давление - измеренное на уровне метеостанции атмосферное давление.
  • Tmin - Минимальная температура - минимум температуры воздуха на высоте 2 м над землей.
  • Tmax - Максимальная температура - максимум температуры воздуха на высоте 2 м над землей.
  • R - Количество осадков - Количество выпавших осадков за период времени, мм. При наведении курсора мыши на число - период времени, за который выпало указанное количество осадков.
  • R24 - Количество осадков - Количество выпавших осадков за 24 часа, мм.
  • S - Снежный покров - Высота снежного покрова, см. При наведении курсора мыши на число - состояние снежного покрова и степень покрытия местности в баллах.